Location: ???????
(60.4260°N, 46.9069°E)
Time: 22:22:30
(UTC+00:00)

SL-08 R/B - Pass Details

Date: 30 March 2020
Orbit: 673 x 740 km, 98.4° (Epoch: 24 May)

Event Time Altitude Azimuth Distance (km) Brightness Sun altitude
Exits shadow 00:15:16 24° 228° (SW) 1,484 4.4 -15.1°
Maximum altitude 00:17:09 32° 266° (W) 1,259 4.2 -14.9°
Drops below altitude 10° 00:21:36 10° 330° (NNW) 2,261 6.0 -14.5°
Sets 00:24:09 0° 340° (NNW) 3,193 6.9 -14.2°
